Location: Pinon Ridge Observatory
(38.3507°N, 107.9359°W)
Time: 16:55:52
(UTC-06:00)

N. Korean satellite - Visible Passes

Search period start: 18 September 2018 00:00
Search period end: 28 September 2018 00:00
Orbit: 458 x 511 km, 97.2° (Epoch: 17 September)

Date Brightness Start Highest point End Pass type
(mag) Time Alt. Az. Time Alt. Az. Time Alt. Az.
18 Sep 9.8 19:45:13 10° SW 19:47:26 16° W 19:49:41 10° NW visible
22 Sep 9.7 19:41:02 10° SW 19:43:30 18° W 19:46:00 10° NW visible
26 Sep 9.7 19:36:50 10° SW 19:39:31 20° W 19:42:14 10° NW visible
